Weather in Starobilsk

Ukraine / Luhansk Region     49°16′52″N   38°54′20″E
temp.,
°C
wind,
m/s
gust,
m/s
humid.,
%
clouds,
%
prec.,
mm/h
press.,
hPa
HPBL,
m
22 april, thu
thu2200:00+9s346918 0.0 101857
03:00+7sw338124 0.1 101945
06:00+7sw34895 0.0 102085
09:00+13sw34655 0.0 1021643
12:00+16wsw454562 0.3 10212096
15:00+17ssw2338100 0.3 10202058
18:00+14ssw345797 0.2 102195
21:00+13ssw115989 0.2 102211
23 april, fri
fri2300:00+12s226298 0.0 102115
03:00+9sw227277 0.0 102111
06:00+9sw227894 0.0 102143
09:00+13sw456548 0.0 1021595
12:00+17sw554916 0.1 10201847
15:00+17sw4644100 0.1 10181818
18:00+16s365191 0.0 1017256
21:00+13ssw6116274 0.1 1017355
24 april, sat
sat2400:00+9s4975100 0.0 1016232
03:00+10sw41073100 0.1 1015440
06:00+9ssw51277100 0.1 1013547
09:00+7wnw5887100 0.8 1014487
12:00+10w586452 0.4 10151372
15:00+12wsw7104594 0.8 10142283
18:00+10wnw610533 0.0 10141676
21:00+6w7127541 0.1 1017821
25 april, sun
sun2500:00+4wsw612685 0.0 1018565
03:00+3w6118526 0.0 1019497
06:00+5wnw696199 0.0 10201141
09:00+8wnw68535 0.0 10201204
12:00+11wnw6738100 0.0 10202416
15:00+12wnw4633100 0.0 10192451
18:00+12w34408 0.0 10191784
21:00+7sw2248100 0.0 102010
26 april, mon
mon2600:00+6s2251100 0.0 101916
03:00+5ssw3356100 0.0 101826
06:00+5sw2361100 0.0 101862
09:00+10ssw344990 0.0 1017586
12:00+14ssw583892 0.0 10152277
15:00+12w9106594 0.3 10141433
18:00+6wnw7975100 0.3 1016987
21:00+4wsw36815 0.3 1017116